Whiteman AFB, MO

12:09 AM CST on February 26, 2017 (GMT -0600)
Whiteman Air Force Base

Weather History for KSZL - March, 2013

Change the Weather History Date:

Friday, March 29, 2013

  Actual Average Record
Temperature  
Mean Temperature 52 °F -  
Max Temperature 66 °F 59 °F 78 °F (2005)
Min Temperature 38 °F 38 °F 29 °F (2009)
Degree Days  
Heating Degree Days 13    
Growing Degree Days 2 (Base 50)    
Moisture  
Dew Point 43 °F    
Average Humidity 79    
Maximum Humidity 100    
Minimum Humidity 35    
Precipitation  
Precipitation 0.07 in - - ()
Sea Level Pressure  
Sea Level Pressure 30.18 in    
Wind  
Wind Speed 7 mph (ENE)    
Max Wind Speed 17 mph    
Max Gust Speed -    
Visibility 10 miles    
Events Rain    
Averages and records for this station are not official NWS values.
T = Trace of Precipitation, MM = Missing Value Source: NWS Daily Summary

Daily Weather History Graph

Daily Weather History Graph

Search for Another Location

Airport or City:

Trip Planner

Search our weather history database for the weather conditions in past years. The results will help you decide how hot, cold, wet, or windy it might be!

Date:

Astronomy

Mar. 29, 2013 Rise Set
Actual Time 7:03 AM CDT 7:35 PM CDT
Civil Twilight 6:36 AM CDT 8:01 PM CDT
Nautical Twilight 6:05 AM CDT 8:33 PM CDT
Astronomical Twilight 5:32 AM CDT 9:05 PM CDT
Moon 10:33 PM CDT (3/29) 8:14 AM CDT (3/29)
Length of Visible Light 13h 25m
Length of Day
12h 31m
Waning Gibbous, 93% of the Moon is Illuminated
Mar 29
Waning Gibbous
Apr 2
Last Quarter
Apr 10
New
Apr 18
First Quarter
Apr 25
Full

Hourly Weather History & Observations

Time (CDT) Temp. Windchill Dew Point Humidity Pressure Visibility Wind Dir Wind Speed Gust Speed Precip Events Conditions
12:04 AM 50.0 °F - 46.4 °F 87% 30.16 in 10.0 mi East 5.8 mph - N/A Rain Light Rain
12:14 AM 48.2 °F - 46.4 °F 93% 30.16 in 10.0 mi East 4.6 mph - N/A   Mostly Cloudy
12:58 AM 47.7 °F - 45.0 °F 90% 30.19 in 10.0 mi NNE 9.2 mph - 0.00 in   Mostly Cloudy
1:06 AM 48.2 °F - 44.6 °F 87% 30.20 in 10.0 mi NNW 17.3 mph - N/A   Light Drizzle
1:14 AM 46.4 °F 40.1 °F 44.6 °F 93% 30.19 in 10.0 mi NNE 15.0 mph - N/A Rain Rain
1:24 AM 46.4 °F 41.9 °F 46.4 °F 100% 30.18 in 9.0 mi ENE 9.2 mph - N/A Rain Light Rain
1:34 AM 46.4 °F 41.5 °F 44.6 °F 93% 30.16 in 5.0 mi East 10.4 mph - N/A Rain Light Rain
1:39 AM 46.4 °F 42.4 °F 46.4 °F 100% 30.17 in 7.0 mi ESE 8.1 mph - N/A Rain Light Rain
1:46 AM 46.4 °F 42.9 °F 46.4 °F 100% 30.18 in 10.0 mi ENE 6.9 mph - N/A   Overcast
1:58 AM 45.3 °F 42.3 °F 45.3 °F 100% 30.17 in 10.0 mi ENE 5.8 mph - 0.07 in   Overcast
2:58 AM 44.1 °F 42.5 °F 43.9 °F 99% 30.17 in 10.0 mi ENE 3.5 mph - N/A   Mostly Cloudy
3:58 AM 42.3 °F 39.4 °F 42.3 °F 100% 30.17 in 10.0 mi NNE 4.6 mph - N/A   Scattered Clouds
4:58 AM 41.4 °F 38.4 °F 41.2 °F 99% 30.17 in 10.0 mi NE 4.6 mph - N/A   Clear
5:58 AM 39.6 °F 36.3 °F 39.4 °F 99% 30.18 in 10.0 mi ENE 4.6 mph - N/A   Clear
6:58 AM 38.5 °F 36.1 °F 38.5 °F 100% 30.19 in 10.0 mi East 3.5 mph - N/A   Clear
7:58 AM 39.4 °F 36.1 °F 39.4 °F 100% 30.22 in 10.0 mi NE 4.6 mph - N/A   Clear
8:58 AM 43.2 °F 40.5 °F 42.8 °F 99% 30.23 in 10.0 mi East 4.6 mph - N/A   Clear
9:58 AM 48.9 °F - 48.2 °F 97% 30.23 in 10.0 mi ENE 4.6 mph - N/A   Clear
10:58 AM 52.7 °F - 50.0 °F 91% 30.23 in 10.0 mi NE 8.1 mph - N/A   Clear
11:58 AM 57.4 °F - 48.9 °F 73% 30.23 in 10.0 mi East 8.1 mph - N/A   Clear
12:58 PM 61.0 °F - 48.7 °F 64% 30.21 in 10.0 mi ENE 8.1 mph - N/A   Clear
1:58 PM 63.1 °F - 44.8 °F 51% 30.19 in 10.0 mi ENE 10.4 mph - N/A   Clear
2:58 PM 65.1 °F - 44.6 °F 47% 30.18 in 10.0 mi ENE 6.9 mph - N/A   Clear
3:56 PM 66.2 °F - 41.0 °F 40% 30.14 in 10.0 mi East 6.9 mph - N/A   Clear
4:58 PM 66.6 °F - 40.5 °F 38% 30.14 in 10.0 mi ENE 6.9 mph - N/A   Clear
5:58 PM 65.3 °F - 36.9 °F 35% 30.15 in 10.0 mi East 5.8 mph - N/A   Clear
6:58 PM 63.0 °F - 39.9 °F 43% 30.15 in 10.0 mi East 6.9 mph - N/A   Clear
7:58 PM 56.3 °F - 40.6 °F 56% 30.16 in 10.0 mi East 4.6 mph - N/A   Clear
8:58 PM 54.9 °F - 37.9 °F 53% 30.16 in 10.0 mi ESE 6.9 mph - N/A   Clear
9:58 PM 51.8 °F - 37.6 °F 58% 30.17 in 10.0 mi ESE 6.9 mph - N/A   Clear
10:58 PM 50.5 °F - 37.8 °F 62% 30.15 in 10.0 mi ESE 5.8 mph - N/A   Clear
11:58 PM 49.3 °F - 38.1 °F 65% 30.14 in 10.0 mi ESE 5.8 mph - N/A   Clear